Mobile Downtown, AL

7:03 PM CDT on June 23, 2017 (GMT -0500)
Mobile Downtown

Weather History for KBFM - March, 2012

Change the Weather History Date:

Monday, March 5, 2012

  Actual Average Record
Temperature  
Mean Temperature 64 °F -  
Max Temperature 77 °F 64 °F 77 °F (2012)
Min Temperature 50 °F 46 °F 24 °F (2002)
Degree Days  
Heating Degree Days 2    
Growing Degree Days 14 (Base 50)    
Moisture  
Dew Point 39 °F    
Average Humidity 44    
Maximum Humidity 66    
Minimum Humidity 22    
Precipitation  
Precipitation 0.00 in - - ()
Sea Level Pressure  
Sea Level Pressure 30.34 in    
Wind  
Wind Speed 6 mph (NNW)    
Max Wind Speed 13 mph    
Max Gust Speed 18 mph    
Visibility 10 miles    
Events      
Averages and records for this station are not official NWS values.
T = Trace of Precipitation, MM = Missing Value Source: NWS Daily Summary

Daily Weather History Graph

Daily Weather History Graph

Search for Another Location

Airport or City:

Trip Planner

Search our weather history database for the weather conditions in past years. The results will help you decide how hot, cold, wet, or windy it might be!

Date:

Astronomy

Mar. 05, 2012 Rise Set
Actual Time 6:13 AM CST 5:54 PM CST
Civil Twilight 5:49 AM CST 6:18 PM CST
Nautical Twilight 5:21 AM CST 6:46 PM CST
Astronomical Twilight 4:53 AM CST 7:14 PM CST
Moon 3:20 PM CST (3/5) 4:02 AM CST (3/5)
Length of Visible Light 12h 28m
Length of Day
11h 40m
Waxing Gibbous, 91% of the Moon is Illuminated
Mar 5
Waxing Gibbous
Mar 8
Full
Mar 14
Last Quarter
Mar 22
New
Mar 30
First Quarter

Hourly Weather History & Observations

Time (CST) Temp. Dew Point Humidity Pressure Visibility Wind Dir Wind Speed Gust Speed Precip Events Conditions
12:53 AM 50.0 °F 37.9 °F 63% 30.26 in 10.0 mi Calm Calm - N/A   Clear
1:53 AM 54.0 °F 42.1 °F 64% 30.27 in 10.0 mi West 4.6 mph - N/A   Clear
2:53 AM 53.1 °F 41.0 °F 64% 30.27 in 10.0 mi West 4.6 mph - N/A   Clear
3:53 AM 53.1 °F 42.1 °F 66% 30.27 in 10.0 mi West 5.8 mph - N/A   Clear
4:53 AM 54.0 °F 42.1 °F 64% 30.29 in 10.0 mi West 6.9 mph - N/A   Clear
5:53 AM 54.0 °F 42.1 °F 64% 30.30 in 10.0 mi West 8.1 mph 17.3 mph N/A   Clear
6:53 AM 54.0 °F 43.0 °F 66% 30.32 in 10.0 mi West 8.1 mph - N/A   Clear
7:53 AM 57.9 °F 43.0 °F 58% 30.35 in 10.0 mi West 12.7 mph 16.1 mph N/A   Clear
8:53 AM 64.9 °F 41.0 °F 42% 30.38 in 10.0 mi NW 10.4 mph - N/A   Clear
9:53 AM 69.1 °F 39.0 °F 33% 30.38 in 10.0 mi NW 12.7 mph - N/A   Clear
10:53 AM 72.0 °F 39.0 °F 30% 30.37 in 10.0 mi NNW 5.8 mph - N/A   Clear
11:53 AM 72.0 °F 41.0 °F 33% 30.36 in 10.0 mi East 6.9 mph - N/A   Clear
12:53 PM 72.0 °F 39.9 °F 31% 30.34 in 10.0 mi Calm Calm - N/A   Clear
1:53 PM 77.0 °F 36.0 °F 23% 30.32 in 10.0 mi NNW 3.5 mph - N/A   Clear
2:53 PM 77.0 °F 35.1 °F 22% 30.31 in 10.0 mi NNW 9.2 mph - N/A   Clear
3:53 PM 77.0 °F 35.1 °F 22% 30.31 in 10.0 mi NNW 9.2 mph 18.4 mph N/A   Clear
4:53 PM 75.0 °F 33.1 °F 22% 30.32 in 10.0 mi North 12.7 mph - N/A   Clear
5:53 PM 64.9 °F 37.9 °F 37% 30.34 in 10.0 mi North 5.8 mph - N/A   Clear
6:53 PM 63.0 °F 37.0 °F 38% 30.36 in 10.0 mi North 5.8 mph - N/A   Clear
7:53 PM 64.0 °F 44.1 °F 48% 30.37 in 10.0 mi NNE 6.9 mph - N/A   Clear
8:53 PM 62.1 °F 37.9 °F 41% 30.39 in 10.0 mi NNE 8.1 mph - N/A   Clear
9:53 PM 59.0 °F 36.0 °F 42% 30.41 in 10.0 mi North 5.8 mph - N/A   Clear
10:53 PM 57.9 °F 36.0 °F 44% 30.41 in 10.0 mi NNE 6.9 mph - N/A   Clear
11:53 PM 57.0 °F 35.1 °F 44% 30.40 in 10.0 mi NE 5.8 mph - N/A   Clear